User: anonymous   Login
Location: Julian California
(33.0790°N, 116.6010°W)
Time: 16:29:39
(UTC-08:00)
Language:

Cosmos 1461 - Orbit

View from above orbital plane
View from above orbital plane
View from above satellite
View from above satellite

Ground track
Ground track

The orbit data is extracted from the following two-line orbital elements,

1 14064U 83044A   18318.56736962  .00000450  00000-0  52138-4 0  9991
2 14064  64.9991 129.2873 0109970 210.1019 149.3749 14.94224161800343
Epoch (UTC): 14 November 2018 13:37:00
Eccentricity: 0.0109970
inclination: 64.9991°
perigee height: 508 km
apogee height: 661 km
right ascension of ascending node: 129.2873°
argument of perigee: 210.1019°
revolutions per day: 14.94224161
mean anomaly at epoch: 149.3749°
orbit number at epoch: 80034

The dashed part of the orbit path shows where the satellite is in the earth's shadow,  

DLR